DECAYED

STARLINK-1378, 45548 (Decayed)

Orbit data source: Space-Track

STARLINK-1378, 45548 was a payload satellite owned by SpaceX/Seattle (US) in LEO that was launched on Wed, 22 Apr 2020 UTC via an FALCON 9 launch vehicle from the Air Force Eastern Test Range (AFETR). Payload-class satellites include a variety of spacecraft equipped with specific instruments for various scientific and technological missions. These include communications satellites like Starlink; space stations such as the ISS; scientific satellites like the Hubble; Earth observation satellites from companies like Planet Labs, Umbra, and HawkEye 360; GPS; miniature CubeSats for education and research; and military/defense satellites.

Not visible in the next 10 days
Identifier
45548, 2020-025T
Orbit
Decayed
Country
Flag of USUS
Related business
Manufacturer
SpaceX/Seattle
Mission
Decayed Commercial Communications
Bus & Motor
STARLINK, Unknown motor
Mass
260 kg wet, ~248 kg dry
Launch date (UTC)
2020-04-22 (5 years ago)
Launch vehicle
FALCON 9
Launch site
Air Force Eastern Test Range (AFETR)
Object type
Payload
Rocket body
Debris
Shape & HBR
Box + 1 Pan, 10.1 m
Radar Cross Section
13.562 m², Large (>1 m²)

Expand to show TLE details & history
Last TLE update: 8 months ago

TLE from 8 months ago
0 STARLINK-1378
1 45548U 20025T   25056.43432917  .07610854  12212-4  74662-3 0  9997
2 45548  53.0240 312.3938 0007118 223.0942 306.1564 16.37409185268229
Epoch: 2025-02-25T10:25Z
TLE epoch observation values (Epoch: 2025-02-25T10:25:26.040Z)
Latitude
8.59417°
Longitude
174.00115°
Altitude
170.17 km
Speed
7.808 km/s
True Right ascension
08h 23m 35s
True Declination
8° 32' 20"
Sunlit
Object was in full shadow at epoch
Visualization orbit readout
Latitude
Unknown
Longitude
Unknown
Altitude
Unknown
Speed
Unknown
Apparent Right ascension
Unknown
Apparent Declination
Unknown
Sunlit
N/A
Visualization observer readout
Local Sidereal Time
14:52:54
Azimuth
Unknown
Elevation
Unknown
Doppler factor
Unknown
Orbital elements
Apogee altitude
177.657 km
Perigee altitude
168.331 km
Semi-major axis
6,551.131 km
Eccentricity
0.00071
Inclination
53.024°
RAAN
312.3938°
Arg. of periapsis
223.0942°
True anomaly
306.09051°
Mean anomaly
306.1564°
Eccentric anomaly
306.12346°
Mean motion
4.09325 °/min
Orbital period
87.95 mins
BSTAR
0.00074662
Loading maneuver chart data...
Computing Atmospheric mass density...
Loading historical data...
Loading historical data...
Loading historical data...
Loading historical data...
Loading historical data...
Loading historical data...
Loading historical data...

Documentation

Showing up to 5 results
|